[[{"header":{"parameterUnit":"m.s-1","parameterCategory":1,"la1":30.2991,"la2":30.254,"lo1":-89.0895,"lo2":-89.0444,"dy":0.0017,"dx":0.0017,"nx":28,"ny":28,"refTime":"2024-08-03T09:00:00:Z","depth":0,"parameterNumber":2,"parameterNumberName":"U-component_of_WINDS"},"data":[0,0,0,0,0,0,0,0,0,0,0,0,0,0,0,0,0,0,0,0,0,0,0,0,0,0,0,0,0,0,0,0,0,0,0,0,0,0,0,0,0,0,0,0,0,0,0,0,0,0,0,0,0,0,0,0,0,0,1.4165,1.4165,0,1.4193,1.4193,1.4193,1.4136,1.4134,1.4132,1.413,1.4156,1.4158,1.4161,0,0,0,0,0,0,0,0,0,0,0,0,0,1.4059,1.4061,1.4165,1.4165,1.4166,1.4193,1.4193,1.4194,1.4136,1.4134,1.4132,1.413,1.4155,1.4158,1.4161,0,0,0,0,0,0,0,0,0,0,0,0,0,1.4097,1.4062,1.4165,1.4141,1.4139,1.4193,1.4193,1.4194,1.4137,1.4134,1.4131,1.4129,1.4154,1.4158,1.4161,1.4239,0,0,1.4172,1.4174,0,0,0,0,0,0,0,0,1.4095,1.4101,1.4144,1.4142,1.414,1.4158,1.4165,1.4209,1.4137,1.4137,1.413,1.4127,1.4159,1.4162,1.4173,1.4241,1.4242,1.4173,1.4175,1.4176,1.4177,0,0,0,0,0,0,0,1.4093,1.41,1.4176,1.4144,1.4142,1.4127,1.4129,1.4173,1.4163,1.4137,1.4133,1.4137,1.4157,1.417,1.4173,1.4242,1.4172,1.4176,1.4178,1.4179,1.4374,1.4376,0,0,0,0,0,0,1.4094,1.4098,1.4175,1.4177,1.4111,1.4131,1.4134,1.4155,1.4163,1.4161,1.414,1.4134,1.4165,1.4169,1.4174,1.4265,1.4176,1.418,1.4182,1.4371,1.4374,1.4377,0,0,0,0,0,0,1.4091,1.4101,1.4174,1.4136,1.4144,1.4136,1.416,1.4157,1.417,1.4165,1.4162,1.4154,1.4163,1.4169,1.4223,1.4265,1.4181,1.4185,1.4367,1.4372,1.4376,1.4448,0,0,0,0,0,0,1.4089,1.4101,1.4131,1.4137,1.4147,1.4224,1.4163,1.416,1.4176,1.417,1.4178,1.4176,1.4161,1.4218,1.4227,1.4268,1.4187,1.4363,1.4369,1.4374,1.4442,1.4455,1.4465,0,0,0,0,0,1.4085,1.415,1.4133,1.4143,1.4185,1.4227,1.4232,1.4214,1.418,1.421,1.4206,1.4176,1.4259,1.4224,1.4234,1.4277,1.4361,1.4368,1.4374,1.4437,1.4452,1.4465,0,0,0,0,0,0,1.4148,1.4151,1.4132,1.4201,1.4214,1.4217,1.4254,1.4231,1.4253,1.4246,1.4222,1.4224,1.4283,1.4285,1.4247,1.4352,1.4304,1.4313,1.4348,1.4363,1.4374,1.4372,1.419,0,0,0,0,0,1.417,1.4205,1.4205,1.4266,1.4274,1.4263,1.4281,1.4266,1.4278,1.4283,1.4284,1.4296,1.4325,1.4344,1.437,1.4442,1.4442,1.4476,1.4488,1.4498,1.4505,1.4542,1.4557,1.44,1.44,1.4399,0,0,1.4216,1.4222,1.4245,1.4279,1.4287,1.4323,1.4268,1.4308,1.4334,1.4289,1.434,1.4341,1.4353,1.4417,1.4445,1.442,1.4549,1.4506,1.4514,1.4516,1.455,1.4565,1.4579,1.4404,1.4403,1.4403,0,0,1.4317,1.4326,1.4377,1.4387,1.4401,1.4393,1.4405,1.4412,1.4411,1.4463,1.4429,1.4459,1.4509,1.4518,1.453,1.4634,1.4607,1.4643,1.4704,1.474,1.4752,1.4763,1.4799,1.4812,1.4651,1.4651,1.4651,0,1.4372,1.4425,1.4406,1.4448,1.4463,1.4425,1.4476,1.4486,1.4507,1.4518,1.4491,1.4552,1.4558,1.4622,1.4648,1.4659,1.4671,1.4642,1.4752,1.4763,1.4773,1.4807,1.482,1.4656,1.4655,1.4655,1.4654,0,1.4491,1.4528,1.4568,1.459,1.461,1.4656,1.4643,1.4665,1.4648,1.4643,1.4695,1.47,1.4726,1.474,1.4724,1.4802,1.4787,1.4757,1.4707,1.4792,1.4824,1.4837,1.4662,1.466,1.4659,1.4658,0,0,1.4632,1.4643,1.4658,1.4667,1.468,1.4707,1.4751,1.4778,1.4796,1.4812,1.4847,1.4891,1.4863,1.4876,1.486,1.4892,1.4973,1.4857,1.4857,1.4878,1.5058,1.508,1.5095,1.4955,1.4957,1.4959,1.5056,0,1.4732,1.4808,1.4792,1.4867,1.49,1.4864,1.4902,1.4913,1.4909,1.4936,1.4931,1.4962,1.4923,1.493,1.4961,1.4957,1.5008,1.4949,1.4986,1.4987,1.4983,1.5112,1.5135,1.5226,1.5068,1.507,1.5072,0,1.4858,1.4879,1.4958,1.4963,1.4977,1.5012,1.5033,1.506,1.5071,1.5066,1.5081,1.5059,1.5101,1.5052,1.5109,1.5069,1.5083,1.5084,1.5087,1.5088,1.5034,1.5116,1.5255,1.5269,1.5091,1.509,1.5088,0,1.4951,1.5,1.5052,1.5062,1.507,1.5095,1.51,1.5108,1.5125,1.5144,1.5154,1.5178,1.519,1.5208,1.5193,1.5159,1.5252,1.5202,1.5247,1.5248,1.5268,1.5267,1.541,1.5279,1.5279,1.5278,1.5278,0,1.5063,1.5112,1.5095,1.5127,1.518,1.516,1.5213,1.5213,1.5221,1.5252,1.5222,1.5251,1.523,1.5257,1.5245,1.5293,1.5299,1.5295,1.5291,1.5297,1.5298,1.5305,1.5298,1.5282,1.5281,1.5281,1.528,0,1.5177,1.5167,1.5222,1.5226,1.5228,1.5267,1.5269,1.5299,1.5293,1.5332,1.534,1.533,1.5361,1.5347,1.5379,1.5371,1.5432,1.542,1.5429,1.5425,1.5471,1.5466,1.5624,1.5643,1.55,1.5502,1.5503,0,1.5248,1.5285,1.5293,1.5312,1.5319,1.535,1.5366,1.5348,1.5366,1.5381,1.5409,1.5437,1.5458,1.5507,1.5503,1.5526,1.5514,1.5568,1.5517,1.5522,1.5513,1.5511,1.5514,1.5577,1.5579,1.558,1.5581,0,1.5376,1.5369,1.5395,1.5419,1.544,1.5458,1.5473,1.549,1.5472,1.5494,1.5525,1.5542,1.5574,1.5602,1.5622,1.5625,1.56,1.5597,1.5609,1.5615,1.5618,1.5616,1.5455,1.5594,1.5592,1.5592,1.5591,1.559,1.547,1.55,1.5511,1.554,1.555,1.5564,1.5592,1.559,1.5615,1.5641,1.5628,1.5664,1.5673,1.5698,1.5705,1.5731,1.571,1.5727,1.5731,1.5736,1.5741,1.5615,1.5735,1.5735,1.5735,1.5734,1.5734,0,1.5595,1.5599,1.5627,1.5649,1.5672,1.5647,1.5663,1.5683,1.5715,1.5726,1.5748,1.5783,1.5809,1.5806,1.583,1.5852,1.5841,1.5859,1.5857,1.5858,1.5759,1.5747,1.5868,1.5868,1.5868,1.5867,1.5867,1.5867,1.5662,1.5713,1.5707,1.5761,1.5765,1.58,1.5811,1.5824,1.5833,1.5873,1.5895,1.5894,1.5899,1.5923,1.5946,1.5944,1.5954,1.5976,1.597,1.5878,1.5865,1.5852,1.584,1.5978,1.5978,1.6065,1.6066,1.6067]},{"header":{"parameterUnit":"m.s-1","parameterCategory":1,"la1":30.2991,"la2":30.254,"lo1":-89.0895,"lo2":-89.0444,"dy":0.0017,"dx":0.0017,"nx":28,"ny":28,"refTime":"2024-08-03T09:00:00:Z","depth":0,"parameterNumber":3,"parameterNumberName":"V-component_of_WINDS"},"data":[0,0,0,0,0,0,0,0,0,0,0,0,0,0,0,0,0,0,0,0,0,0,0,0,0,0,0,0,0,0,0,0,0,0,0,0,0,0,0,0,0,0,0,0,0,0,0,0,0,0,0,0,0,0,0,0,0,0,1.1269,1.1269,0,1.1309,1.1309,1.131,1.1328,1.1328,1.1328,1.1328,1.1366,1.1367,1.1368,0,0,0,0,0,0,0,0,0,0,0,0,0,1.1204,1.1205,1.1269,1.127,1.127,1.1309,1.1309,1.131,1.1328,1.1328,1.1328,1.1328,1.1365,1.1367,1.1368,0,0,0,0,0,0,0,0,0,0,0,0,0,1.1237,1.1206,1.1269,1.1284,1.1286,1.1309,1.1309,1.131,1.1328,1.1328,1.1328,1.1328,1.1365,1.1366,1.1368,1.1378,0,0,1.1373,1.1373,0,0,0,0,0,0,0,0,1.1235,1.1239,1.1281,1.1283,1.1285,1.1314,1.13,1.1333,1.1328,1.1312,1.1328,1.1328,1.1348,1.1351,1.1359,1.138,1.1381,1.1373,1.1374,1.1374,1.1375,0,0,0,0,0,0,0,1.1233,1.1238,1.1285,1.1282,1.1284,1.1287,1.1292,1.1306,1.133,1.1313,1.1315,1.1319,1.1349,1.1357,1.136,1.1382,1.1373,1.1374,1.1375,1.1376,1.1411,1.1411,0,0,0,0,0,0,1.1229,1.1236,1.1283,1.1286,1.1259,1.1288,1.1293,1.1304,1.133,1.1333,1.1319,1.132,1.1354,1.1358,1.1361,1.1373,1.1374,1.1376,1.1377,1.1411,1.1411,1.1411,0,0,0,0,0,0,1.1227,1.1233,1.1282,1.1261,1.1268,1.1289,1.1302,1.1305,1.1313,1.1334,1.1338,1.1324,1.1355,1.1359,1.1373,1.1375,1.1377,1.1378,1.1411,1.1411,1.1411,1.1398,0,0,0,0,0,0,1.1225,1.1232,1.1237,1.1261,1.1269,1.1295,1.1302,1.1306,1.1316,1.1317,1.1339,1.1343,1.1355,1.1371,1.1375,1.1377,1.1379,1.1411,1.1411,1.1411,1.1399,1.1398,1.1397,0,0,0,0,0,1.1223,1.1232,1.1238,1.1243,1.1276,1.1295,1.1299,1.1314,1.1316,1.1321,1.1334,1.1342,1.1374,1.1372,1.1377,1.1379,1.1411,1.1411,1.1411,1.1399,1.1398,1.1397,0,0,0,0,0,0,1.1208,1.1236,1.1242,1.126,1.1275,1.1298,1.1305,1.1313,1.1327,1.1328,1.1344,1.1349,1.1362,1.1372,1.137,1.1389,1.1393,1.1394,1.1382,1.1382,1.1381,1.1378,1.138,0,0,0,0,0,1.1206,1.1221,1.1244,1.1257,1.1264,1.1283,1.1292,1.1302,1.1318,1.1324,1.1339,1.1353,1.1366,1.1374,1.1388,1.14,1.1404,1.1404,1.1403,1.1402,1.1403,1.1408,1.1408,1.1411,1.1411,1.1411,0,0,1.1204,1.1221,1.1229,1.1254,1.1267,1.128,1.1288,1.1302,1.1311,1.1326,1.1341,1.1351,1.1368,1.1381,1.1388,1.139,1.1403,1.1402,1.1402,1.1403,1.1408,1.1408,1.1408,1.1411,1.1411,1.1411,0,0,1.1206,1.1221,1.1232,1.1245,1.1265,1.1277,1.1279,1.1301,1.1309,1.1324,1.1335,1.1345,1.1368,1.1379,1.1387,1.1391,1.1398,1.1394,1.139,1.1395,1.1395,1.1395,1.1395,1.1395,1.1395,1.1395,1.1395,0,1.12,1.1221,1.1237,1.125,1.126,1.1274,1.1285,1.1296,1.1318,1.1324,1.1327,1.1354,1.1367,1.1381,1.1382,1.1389,1.1391,1.1392,1.1394,1.1394,1.1394,1.1394,1.1394,1.1394,1.1394,1.1394,1.1394,0,1.1212,1.1226,1.1233,1.1255,1.1265,1.1277,1.1293,1.1302,1.131,1.1321,1.1335,1.135,1.1366,1.137,1.1378,1.1386,1.1386,1.1391,1.1395,1.1393,1.1393,1.1394,1.1393,1.1393,1.1394,1.1394,0,0,1.1207,1.1236,1.1238,1.1247,1.1269,1.1279,1.129,1.1306,1.1313,1.1327,1.1336,1.1354,1.1358,1.1367,1.1377,1.1381,1.1381,1.1385,1.1386,1.1383,1.1388,1.1384,1.1384,1.1386,1.1386,1.1386,1.1386,0,1.1211,1.1233,1.1247,1.1263,1.1275,1.1287,1.1296,1.1309,1.132,1.133,1.1341,1.1353,1.1358,1.1364,1.1369,1.138,1.1382,1.138,1.1393,1.1393,1.1388,1.1384,1.138,1.138,1.1387,1.1387,1.1387,0,1.122,1.1234,1.1251,1.1269,1.1275,1.1283,1.1298,1.1308,1.1322,1.1329,1.1339,1.1348,1.1358,1.1361,1.1375,1.1373,1.1379,1.1385,1.1385,1.1387,1.139,1.1385,1.1381,1.138,1.1387,1.1387,1.1387,0,1.1213,1.1236,1.1249,1.1256,1.1278,1.1283,1.1292,1.1307,1.1315,1.1327,1.1332,1.1345,1.1352,1.1361,1.1373,1.1374,1.1384,1.1389,1.1389,1.1389,1.1391,1.1391,1.1387,1.1395,1.1395,1.1395,1.1395,0,1.1216,1.1226,1.1246,1.1253,1.1264,1.1278,1.1288,1.1298,1.131,1.1318,1.1329,1.1337,1.1352,1.1361,1.137,1.1379,1.1382,1.1387,1.1389,1.1386,1.1385,1.139,1.139,1.1395,1.1395,1.1395,1.1395,0,1.121,1.1224,1.1239,1.1258,1.1263,1.1269,1.1285,1.1292,1.1302,1.1313,1.1316,1.1331,1.1342,1.1355,1.137,1.1376,1.1383,1.1387,1.1379,1.138,1.138,1.1379,1.1378,1.1378,1.1387,1.1387,1.1387,0,1.1211,1.1219,1.1238,1.1245,1.1254,1.1265,1.1273,1.1287,1.1294,1.131,1.1315,1.1326,1.1337,1.1353,1.1365,1.1376,1.1379,1.1378,1.1381,1.1377,1.1378,1.1377,1.1378,1.1377,1.1377,1.1377,1.1377,0,1.1211,1.1217,1.1229,1.1242,1.1252,1.1263,1.1274,1.1279,1.1294,1.1302,1.1313,1.1321,1.1336,1.1347,1.1359,1.1367,1.1374,1.1376,1.1376,1.1373,1.1368,1.1369,1.1376,1.1376,1.1376,1.1376,1.1376,1.1376,1.1208,1.1215,1.1229,1.1241,1.1251,1.1261,1.1268,1.1279,1.1289,1.1302,1.1309,1.132,1.1332,1.1349,1.1356,1.1364,1.1366,1.1368,1.1368,1.1368,1.1366,1.1366,1.1366,1.1366,1.1366,1.1366,1.1366,0,1.1208,1.1217,1.1228,1.1244,1.1252,1.1258,1.1271,1.1277,1.1287,1.1298,1.1307,1.1319,1.133,1.1341,1.1352,1.1356,1.1359,1.1358,1.1358,1.1359,1.1364,1.1362,1.1355,1.1355,1.1355,1.1355,1.1355,1.1355,1.1209,1.122,1.1227,1.1242,1.1251,1.1262,1.1269,1.1277,1.1286,1.1299,1.1307,1.1315,1.1326,1.1337,1.1346,1.1349,1.1352,1.135,1.1354,1.1358,1.1359,1.136,1.1358,1.135,1.135,1.1348,1.1348,1.1348]}]]